Dean International
Flight School

Career Spotlight

Mika

Mika

Congratulations to Mika from Khazakstan. She recently sent us this photo of her flying an Airbus airliner.

More...
Mika's Success Story
close

Congratulations to Mika from Khazakstan. She recently sent us this photo of her flying an Airbus airliner.

Mario

Mario

My dreams could not have been realized if I wouldn't have been part of the Dean International family.

More...
Mario's Success Story
close

"My dreams could not have been realized if I wouldn't have been part of the Dean International family. Thank you Robert, thanks to all my co-workers, and thanks to all of my students!"

Fernando

Fernando

I am now working as a First Officer at TACA and am enjoying every moment of it.

More...
Fernando's Success Story
close

"Will never forget my time of flight training at Dean International. I am now working as a First Officer at TACA and am enjoying every moment of it."

Alvaro

Alvaro

Because of the flight time I was able to built while instructing, I got the experience needed to apply to an airline in Colombia.

More...
Alvaro's Success Story
close

Dean alumnus Alvaro Londoño currently flies with Tampa Cargo. He says of his experience at Dean: "I want to take this opportunity to thank you for giving me the chance to build my experience and expand my knowledge in Dean International. Because of the flight time I was able to built flight instructing, I got the experience needed to apply to an airline in Colombia."

Ralph

Ralph

Every Aruban student of Dean International has made it into Tiara Air Aruba, that is very nice.

More...
Ralph's Success Story
close

"Next to me is my Co-Pilot, Elison. This picture was taken on our first flight together, which was almost exactly 5 years after I finished at Dean International. [...] Every Aruban student of Dean International has made it into Tiara Air Aruba. [...] The future looks bright here in Aruba."

Rohaan

Rohaan

The [..] staff will all work diligently to help you finish your certificates as safely and efficiently as possible.

More...
Rohaan's Success Story
close

After receiving very hard times from other flight schools [...], I came to Dean International where Robert Dean personally sat down with me and gave me a financial and chronological look into how much remained to finish my private pilot certificate. Through his hard efforts as an instructor and mentor, I was able to finish my private pilot certificate within one week.

Welcome to Dean International

In over two decades, Dean International has educated over 7,000 pilots from all over the world, including over 1,000 students from India alone. By offering a great training experience, a friendly service staff, an ample variety of aircraft, and by improving constantly, we have become one of the largest, most prestigious FAA 141-approved flight schools in North America. Located in Miami, Florida, USA, our flight school offers an ideal location for year-round, "learn to fly" weather, flight training. Dean International is not only well-equipped to provide services to professional trainees but also caters to General Aviation renters. Visit or contact our headquarters at Kendall-Tamiami Executive Airport located in Miami, FL today to learn more about us, or simply read more about our programs if you are an international student interested in joining our school.

Local Airport Information
TAF FOR KTMB (Issued: Tue, September 2nd 2014 9:48 PM UTC)
TAF
      AMD KTMB 022045Z 0221/0318 12012KT P6SM SCT035 SCT050 SCT100
      TEMPO 0303/0306 VRB10G20KT 5SM SHRA BKN030 BKN050
      FM031400 10010KT P6SM VCSH SCT030 BKN060
     
METAR FOR KTMB (Issued: Tue, September 2nd 2014 8:53 PM UTC):
KTMB 022053Z 11012KT 10SM FEW036 32/22 A2998 RMK AO2 LTG DSNT E AND W SLP152 T03220222 58022

This weather information is provided by the National Weather Service.
It is automatically refreshed every three minutes.
TAF FOR KHST (Issued: Tue, September 2nd 2014 8:06 PM UTC)
TAF
      AMD KHST 0220/0322 10009KT 9999 FEW050 SCT250 QNH3002INS
      TEMPO 0221/0224 10010G18KT 6000 -TSRA FEW015 BKN025CB
      BECMG 0306/0307 11005KT 9999 SCT025 QNH3001INS
      TEMPO 0319/0322 10010G18KT 6000 -TSRA FEW015 BKN035CB TX33/0220Z TN24/0308Z
      AMD 022059
     
METAR FOR KHST (Issued: Tue, September 2nd 2014 8:58 PM UTC):
KHST 022058Z AUTO 08012KT 10SM CLR 31/23 A2999 RMK AO2 LTG DSNT NE-E AND W SLP159 T03110230 57019

This weather information is provided by the National Weather Service.
It is automatically refreshed every three minutes.
TAF FOR KOPF (Issued: Tue, September 2nd 2014 9:48 PM UTC)
TAF
      AMD KOPF 022045Z 0221/0318 10012KT P6SM SCT040 SCT250
      FM022200 10007KT P6SM VCSH SCT030 SCT050
      TEMPO 0303/0306 VRB10G20KT 5SM SHRA BKN030 BKN050
      FM031400 10009KT P6SM VCSH SCT030 BKN060
     
METAR FOR KOPF (Issued: Tue, September 2nd 2014 8:53 PM UTC):
KOPF 022053Z 10011G16KT 10SM FEW040 31/21 A2999 RMK AO2 LTG DSNT SE SLP157 60000 T03060211 58018

This weather information is provided by the National Weather Service.
It is automatically refreshed every three minutes.
TAF FOR KMIA (Issued: Tue, September 2nd 2014 9:51 PM UTC)
TAF
      AMD KMIA 022045Z 0221/0318 12012KT P6SM BKN040 BKN100
      FM022200 09007KT P6SM VCSH SCT030 SCT050
      TEMPO 0303/0306 VRB10G20KT 5SM SHRA BKN030 BKN050
      FM031400 09011KT P6SM VCSH SCT030 BKN060
     
METAR FOR KMIA (Issued: Tue, September 2nd 2014 8:53 PM UTC):
KMIA 022053Z 11010KT 10SM BKN038 BKN095 BKN250 31/22 A2999 RMK AO2 SLP155 CB DSNT SE T03060217 58019

This weather information is provided by the National Weather Service.
It is automatically refreshed every three minutes.
Design by Ariel Llizo
© Dean International Inc. 2012